When you browse on this site, cookies collect data to enhance your experience and personalize the content and advertising you see.
Visit our Privacy Policy to learn more. By continuing to use the site, you agree to this use of cookies and data.
  • In Romania
  • List of Countries
  • For 7 days
  • Water Temperature
  • Satellite Maps
  • Weather Map
  • Weather Widgets
  • user-avatar
    Login

    Hourly Weather Bolshaya Ivanovka

    Today, 21 March, Thursday

    Time Temperature Precipitation Wind Pressure Humidity
    00:00 -3°C° 0 mm 2 mps 741 mmHg 97%
    01:00 -2°C° 0 mm 2 mps 741 mmHg 97%
    02:00 -2°C° 0 mm 2 mps 741 mmHg 97%
    03:00 -2°C° 0 mm 2 mps 740 mmHg 97%
    04:00 -2°C° 0 mm 2 mps 740 mmHg 98%
    05:00 -1°C° 0 mm 2 mps 740 mmHg 98%
    06:00 -1°C° 0 mm 2 mps 739 mmHg 98%
    07:00 -1°C° 0 mm 2 mps 739 mmHg 99%
    08:00 -1°C° 0 mm 2 mps 739 mmHg 99%
    09:00 -1°C° 0 mm 2 mps 739 mmHg 99%
    10:00 +1°C° 0.1 mm 2 mps 739 mmHg 99%
    11:00 +1°C° 0.1 mm 2 mps 739 mmHg 100%
    12:00 +1°C° 0.1 mm 2 mps 739 mmHg 100%
    13:00 +1°C° 0.1 mm 2 mps 738 mmHg 100%
    14:00 +1°C° 0.1 mm 2 mps 738 mmHg 100%
    15:00 +2°C° 0 mm 1 mps 738 mmHg 99%
    16:00 -1°C° 0 mm 2 mps 738 mmHg 99%
    17:00 -1°C° 0 mm 2 mps 738 mmHg 99%
    18:00 -1°C° 0 mm 2 mps 738 mmHg 98%
    19:00 -1°C° 0 mm 2 mps 738 mmHg 98%
    20:00 -1°C° 0 mm 2 mps 738 mmHg 97%
    21:00 -1°C° 0 mm 3 mps 738 mmHg 97%
    22:00 -2°C° 0 mm 3 mps 738 mmHg 96%
    23:00 -2°C° 0 mm 3 mps 738 mmHg 96%

    Tomorrow, 22 March, Friday

    Time Temperature Precipitation Wind Pressure Humidity
    00:00 -2°C° 0 mm 3 mps 737 mmHg 95%
    01:00 -4°C° 0 mm 3 mps 737 mmHg 95%
    02:00 -5°C° 0 mm 3 mps 737 mmHg 94%
    03:00 -5°C° 0 mm 3 mps 737 mmHg 94%
    04:00 -4°C° 0 mm 2 mps 737 mmHg 93%
    05:00 -4°C° 0 mm 2 mps 737 mmHg 93%
    06:00 -4°C° 0 mm 2 mps 737 mmHg 93%
    07:00 -4°C° 0 mm 2 mps 737 mmHg 91%
    08:00 -3°C° 0 mm 2 mps 737 mmHg 90%
    09:00 -2°C° 0 mm 2 mps 737 mmHg 89%
    10:00 -2°C° 0 mm 2 mps 736 mmHg 91%
    11:00 -2°C° 0 mm 2 mps 736 mmHg 93%
    12:00 -2°C° 0 mm 2 mps 735 mmHg 95%
    13:00 -2°C° 0 mm 2 mps 735 mmHg 95%
    14:00 -2°C° 0 mm 2 mps 735 mmHg 96%
    15:00 -2°C° 0 mm 2 mps 734 mmHg 96%
    16:00 0°C° 0.1 mm 1 mps 734 mmHg 94%
    17:00 0°C° 0.1 mm 1 mps 734 mmHg 92%
    18:00 0°C° 0.1 mm 1 mps 734 mmHg 90%
    19:00 -1°C° 0 mm 1 mps 733 mmHg 90%
    20:00 -3°C° 0 mm 2 mps 733 mmHg 91%
    21:00 -3°C° 0 mm 2 mps 733 mmHg 92%
    22:00 -4°C° 0 mm 2 mps 733 mmHg 91%
    23:00 -4°C° 0 mm 2 mps 732 mmHg 90%

    Day after tomorrow, 23 March, Saturday

    Time Temperature Precipitation Wind Pressure Humidity
    00:00 -5°C° 0 mm 2 mps 732 mmHg 90%
    01:00 -5°C° 0 mm 2 mps 732 mmHg 91%
    02:00 -5°C° 0 mm 2 mps 732 mmHg 91%
    03:00 -5°C° 0 mm 2 mps 732 mmHg 92%
    04:00 -6°C° 0 mm 3 mps 732 mmHg 92%
    05:00 -6°C° 0 mm 3 mps 732 mmHg 93%
    06:00 -6°C° 0 mm 3 mps 732 mmHg 93%
    07:00 -6°C° 0 mm 3 mps 732 mmHg 93%
    08:00 -5°C° 0 mm 3 mps 733 mmHg 92%
    09:00 -4°C° 0 mm 4 mps 733 mmHg 92%
    10:00 -4°C° 0 mm 4 mps 733 mmHg 93%
    11:00 -3°C° 0 mm 4 mps 734 mmHg 94%
    12:00 -3°C° 0 mm 4 mps 734 mmHg 95%
    13:00 -3°C° 0.2 mm 4 mps 734 mmHg 94%
    14:00 -3°C° 0.2 mm 4 mps 734 mmHg 94%
    15:00 -2°C° 0.2 mm 4 mps 734 mmHg 93%
    16:00 -3°C° 0.4 mm 4 mps 734 mmHg 93%
    17:00 -3°C° 0.4 mm 4 mps 735 mmHg 93%
    18:00 -3°C° 0.4 mm 4 mps 735 mmHg 93%
    19:00 -3°C° 0.5 mm 4 mps 735 mmHg 94%
    20:00 -3°C° 0.5 mm 4 mps 736 mmHg 95%
    21:00 -3°C° 0.5 mm 4 mps 736 mmHg 96%
    22:00 -3°C° 0.6 mm 4 mps 736 mmHg 96%
    23:00 -2°C° 0.6 mm 3 mps 736 mmHg 97%

    24 March, Sunday

    Time Temperature Precipitation Wind Pressure Humidity
    00:00 -2°C° 0.6 mm 3 mps 736 mmHg 97%
    01:00 -2°C° 0.1 mm 3 mps 736 mmHg 97%
    02:00 -4°C° 0.1 mm 3 mps 736 mmHg 97%
    03:00 -3°C° 0.1 mm 2 mps 736 mmHg 97%
    04:00 -3°C° 0 mm 2 mps 736 mmHg 97%
    05:00 -1°C° 0 mm 1 mps 736 mmHg 97%
    06:00 -1°C° 0 mm 1 mps 737 mmHg 98%
    07:00 -1°C° 0 mm 0 mps 737 mmHg 98%
    08:00 -1°C° 0 mm 0 mps 737 mmHg 99%
    09:00 -1°C° 0 mm 0 mps 737 mmHg 99%
    10:00 +1°C° 0 mm 1 mps 737 mmHg 99%
    11:00 +1°C° 0 mm 1 mps 737 mmHg 99%
    12:00 -1°C° 0 mm 2 mps 737 mmHg 99%
    13:00 -1°C° 0 mm 2 mps 736 mmHg 99%
    14:00 -1°C° 0 mm 2 mps 736 mmHg 99%
    15:00 -1°C° 0 mm 3 mps 736 mmHg 99%
    16:00 -2°C° 0 mm 2 mps 736 mmHg 97%
    17:00 -2°C° 0 mm 2 mps 735 mmHg 95%
    18:00 -2°C° 0 mm 2 mps 735 mmHg 93%
    19:00 -3°C° 0 mm 2 mps 735 mmHg 94%
    20:00 -3°C° 0 mm 2 mps 735 mmHg 94%
    21:00 -3°C° 0 mm 2 mps 735 mmHg 94%
    22:00 -5°C° 0 mm 3 mps 734 mmHg 94%
    23:00 -5°C° 0 mm 3 mps 734 mmHg 95%

    25 March, Monday

    Time Temperature Precipitation Wind Pressure Humidity
    00:00 -5°C° 0 mm 3 mps 733 mmHg 95%
    01:00 -5°C° 0 mm 3 mps 733 mmHg 95%
    02:00 -5°C° 0 mm 3 mps 732 mmHg 95%
    03:00 -4°C° 0 mm 2 mps 732 mmHg 95%
    04:00 -5°C° 0 mm 3 mps 732 mmHg 95%
    05:00 -5°C° 0 mm 3 mps 731 mmHg 95%
    06:00 -5°C° 0 mm 3 mps 731 mmHg 95%
    07:00 -4°C° 0 mm 3 mps 731 mmHg 95%
    08:00 -4°C° 0 mm 3 mps 730 mmHg 94%
    09:00 -2°C° 0 mm 3 mps 730 mmHg 94%
    10:00 -3°C° 0 mm 4 mps 730 mmHg 95%
    11:00 -3°C° 0 mm 4 mps 730 mmHg 96%
    12:00 -2°C° 0 mm 4 mps 730 mmHg 98%
    13:00 -2°C° 0 mm 4 mps 730 mmHg 97%
    14:00 -2°C° 0 mm 4 mps 730 mmHg 97%
    15:00 -2°C° 0 mm 4 mps 730 mmHg 96%
    16:00 -2°C° 0 mm 4 mps 730 mmHg 94%
    17:00 -3°C° 0 mm 4 mps 730 mmHg 92%
    18:00 -3°C° 0 mm 4 mps 730 mmHg 90%
    19:00 -4°C° 0 mm 4 mps 731 mmHg 90%
    20:00 -4°C° 0 mm 4 mps 731 mmHg 89%
    21:00 -5°C° 0 mm 4 mps 732 mmHg 88%
    22:00 -5°C° 0 mm 4 mps 732 mmHg 89%
    23:00 -7°C° 0 mm 4 mps 732 mmHg 90%

    26 March, Tuesday

    Time Temperature Precipitation Wind Pressure Humidity
    00:00 -7°C° 0 mm 4 mps 732 mmHg 90%
    01:00 -8°C° 0 mm 4 mps 733 mmHg 90%
    02:00 -8°C° 0 mm 4 mps 733 mmHg 91%
    03:00 -7°C° 0 mm 3 mps 733 mmHg 91%
    04:00 -7°C° 0 mm 3 mps 734 mmHg 91%
    05:00 -8°C° 0 mm 3 mps 734 mmHg 91%
    06:00 -8°C° 0 mm 3 mps 735 mmHg 91%
    07:00 -7°C° 0 mm 3 mps 735 mmHg 90%
    08:00 -6°C° 0 mm 3 mps 736 mmHg 89%
    09:00 -5°C° 0 mm 3 mps 736 mmHg 88%
    10:00 -4°C° 0 mm 3 mps 737 mmHg 88%
    11:00 -2°C° 0 mm 3 mps 737 mmHg 87%
    12:00 -2°C° 0 mm 3 mps 737 mmHg 87%
    13:00 -1°C° 0 mm 3 mps 737 mmHg 86%
    14:00 -1°C° 0 mm 3 mps 737 mmHg 85%
    15:00 -1°C° 0 mm 3 mps 737 mmHg 84%
    16:00 -2°C° 0 mm 3 mps 737 mmHg 86%
    17:00 -3°C° 0 mm 2 mps 737 mmHg 88%
    18:00 -4°C° 0 mm 2 mps 737 mmHg 90%
    19:00 -4°C° 0 mm 2 mps 737 mmHg 89%
    20:00 -5°C° 0 mm 2 mps 738 mmHg 88%
    21:00 -5°C° 0 mm 2 mps 738 mmHg 87%
    22:00 -6°C° 0 mm 2 mps 738 mmHg 85%
    23:00 -6°C° 0 mm 2 mps 738 mmHg 83%
    Show more